Location: Greenwich
(51.4790°N, 0.0090°E)
Time: 12:48:47
(UTC+01:00)

Altair - Pass Details

Date: 23 June 2025
Orbit: 1502 x 1682 km, 47.2° (Epoch: 19 July)

Event Time Altitude Azimuth Distance (km) Brightness Sun altitude
Rises 22:25:29 0° 215° (SW) 4,624 9.8 -7.6°
Reaches altitude 10° 22:28:45 10° 207° (SSW) 3,648 9.2 -7.9°
Maximum altitude 22:36:53 38° 144° (SE) 2,183 7.8 -8.6°
Drops below altitude 10° 22:45:12 10° 82° (E) 3,732 9.3 -9.3°
Sets 22:48:34 0° 74° (ENE) 4,742 9.9 -9.6°
